Flag for U.S.A. Weather past 2 weeks in Manassas, Virginia, U.S.A.

Now
37 °F

Clear.


Feels Like: 37 °F
Forecast: 42 / 67 °F
Wind: No wind

Location: Manassas Municipal

Current Time: Oct 25, 2014 at 3:49:40 AM

Latest Report: Oct 25, 2014 at 3:35 AM


Visibility: 9 mi

Pressure: 29.97 "Hg

Humidity: 100%

Dew point: 37 °F

Location of ManassasLocation

Historic Weather in Manassas — Graph

°F

Manassas temperature yesterday

Maximum temperature yesterday: 68 °F (at 3:55 PM)
Minimum temperature yesterday: 43 °F (at 11:55 PM)
Average temperature yesterday: 58 °F

Past Weeks' High & Low Weather Summary

 TemperatureHumidityPressure
High82 °F (Oct 17, 11:45 AM)100% (Oct 10, 7:55 AM)30.30 "Hg (Oct 10, 7:55 AM)
Low36 °F (Oct 20, 5:55 AM)33% (Oct 24, 4:15 PM)29.65 "Hg (Oct 18, 3:55 AM)
Average57 °F82%29.96 "Hg
* Reported Oct 10 2:15 AM — Oct 25 2:35 AM, Manassas, Weather by CustomWeather, © 2014

Note: Actual official high and low records may vary slightly from our data, if they occured in-between our weather recording intervals... More about our weather records

Advertising

Manassas weather history for previous 24 hours

 ConditionsComfort  
Time TempWeatherWind HumidityBarometerVisibility
2:35 AM
Oct 25
39 °FClear.No wind93%29.97 "Hg10 mi
2:15 AM39 °FClear.No wind100%29.97 "Hg10 mi
1:55 AM41 °FClear.No wind100%29.97 "Hg10 mi
1:35 AM41 °FClear.No wind100%29.98 "Hg10 mi
1:15 AM41 °FClear.No wind100%29.98 "Hg10 mi
12:55 AM41 °FClear.No wind100%29.98 "Hg10 mi
12:35 AM41 °FClear.No wind100%29.97 "Hg10 mi
12:15 AM45 °FClear.No wind93%29.97 "Hg10 mi
11:55 PM
Oct 24
43 °FClear.No wind100%29.97 "Hg10 mi
11:35 PM45 °FClear.No wind93%29.97 "Hg10 mi
10:55 PM46 °FClear.No wind87%29.97 "Hg10 mi
10:35 PM46 °FClear.3 mph87%29.97 "Hg10 mi
10:15 PM46 °FClear.3 mph87%29.97 "Hg10 mi
9:55 PM48 °FClear.No wind82%29.96 "Hg10 mi
9:35 PM48 °FClear.No wind76%29.96 "Hg10 mi
9:15 PM52 °FClear.No wind62%29.95 "Hg10 mi
8:55 PM57 °FClear.5 mph48%29.95 "Hg10 mi
8:35 PM54 °FClear.8 mph58%29.95 "Hg10 mi
7:55 PM54 °FClear.3 mph58%29.95 "Hg10 mi
7:35 PM55 °FClear.8 mph51%29.94 "Hg10 mi
7:15 PM55 °FSunny.5 mph59%29.94 "Hg10 mi
6:55 PM61 °FSunny.3 mph39%29.94 "Hg10 mi
6:35 PM61 °FSunny.3 mph42%29.94 "Hg10 mi
6:15 PM63 °FSunny.6 mph39%29.93 "Hg10 mi
5:55 PM64 °FSunny.7 mph37%29.93 "Hg10 mi
5:35 PM64 °FSunny.5 mph40%29.92 "Hg10 mi
5:15 PM64 °FSunny.6 mph40%29.92 "Hg10 mi
4:55 PM66 °FSunny.10 mph35%29.92 "Hg10 mi
4:35 PM68 °FSunny.10 mph33%29.91 "Hg10 mi
4:15 PM68 °FSunny.14 mph33%29.91 "Hg10 mi
3:55 PM68 °FSunny.13 mph38%29.92 "Hg10 mi
3:35 PM66 °FSunny.12 mph40%29.92 "Hg10 mi
2:55 PM66 °FSunny.12 mph40%29.93 "Hg10 mi
2:35 PM64 °FSunny.9 mph40%29.93 "Hg10 mi
2:15 PM66 °FSunny.12 mph37%29.93 "Hg10 mi
1:55 PM66 °FSunny.13 mph40%29.94 "Hg10 mi
1:35 PM64 °FSunny.12 mph40%29.95 "Hg10 mi
1:15 PM66 °FSunny.10 mph37%29.95 "Hg10 mi
12:55 PM64 °FSunny.10 mph46%29.97 "Hg10 mi
12:35 PM63 °FSunny.12 mph49%29.98 "Hg10 mi
12:15 PM63 °FSunny.10 mph49%29.98 "Hg10 mi
11:55 AM63 °FSunny.12 mph49%29.99 "Hg10 mi
11:35 AM63 °FSunny.13 mph49%29.99 "Hg10 mi
11:15 AM61 °FSunny.13 mph55%30.00 "Hg10 mi
6:45 AM54 °FClear.10 mph72%29.98 "Hg10 mi
6:15 AM54 °FClear.12 mph72%29.98 "Hg10 mi
5:55 AM54 °FClear.14 mph72%29.97 "Hg10 mi
5:35 AM54 °FClear.13 mph72%29.97 "Hg10 mi
5:15 AM54 °FClear.14 mph72%29.97 "Hg10 mi
4:55 AM54 °FClear.15 mph72%29.96 "Hg10 mi
4:35 AM54 °FClear.12 mph72%29.96 "Hg10 mi
4:15 AM54 °FClear.12 mph72%29.94 "Hg10 mi
3:55 AM54 °FClear.8 mph67%29.94 "Hg10 mi
3:35 AM54 °FClear.9 mph72%29.93 "Hg10 mi
3:15 AM54 °FClear.8 mph67%29.94 "Hg10 mi
Weather by CustomWeather, © 2014

See weather overviewHow to use our weather pages